Rbgn^[z[y[W
メイン
   新天体発見情報
     Comet C/2021 Q4 (Fuls)
投稿するにはまず登録を

フラット表示 前のトピック | 次のトピック
投稿者 スレッド
佐藤裕久
投稿日時: 2021-9-25 22:12
モデレータ
登録日: 2005-6-12
居住地: 日本
投稿: 2559
オンライン
Comet C/2021 Q4 (Fuls)

David Carson Fuls (月惑星研究所:LPL, アリゾナ大学)の通報によると、8月26日、Mt
Lemmonの1.5-m 反射望遠鏡で得たCCD画像から彗星を発見した。
Fulsの注記によると、5".5のコマとp.a. 270°に9"の尾がある。
K. Wierzchosが、8月27.25日UT、1.5-m Mt Lemmon 反射望遠鏡で得たこの彗星のフォロー
アップ観測では、5"の集光したコマとp.a. 210-260°にまたぐ11"の広い尾があった。
小惑星センターのPCCP webpageに公表後、L. Buzzi (Varese, イタリア: 測定はA. Alettiと
彼, 8月29.0日UT、30秒露出120枚のスタック, 0.84-m f/3.5 反射望遠鏡, 4".5のシーイングで、
集光した7" 幅のコマが見え、p.a. 290に12"のまっすぐな尾がある)や佐藤英貴氏(東京都
文京区, 8月29.2日, 60秒露出24枚のスタック, 0.43-m f/6.8 アストログラフ, 
Mayhill近郊, ニューメキシコ州, 米国, 遠隔操作: 強く集光した8"のぼやけたコマが見える
が、尾はない。5".7の円形範囲で測定した光度は20.1等であった)らCCD位置観測者によって
彗星状と観測された。

彗星機能の報告は次の通り、

OC   Date        Reporter           Coma    Tail    PA          Exposures
G96  2021-08-27  K. Wierzchos       5"       11"    210-260
F65  2021-08-28  P. Breitenstein    3"
204  2021-08-28	 A. Aletti    	    7"       12"    290
F52  2021-08-29  R. Weryk           0".6                          4x45s
H06  2021-08-29  H. Sato            8"                           24x60s
157  2021-08-29  R. Haver           5"
Z08  2021-08-29  E. Guido           8"                           30x120s

発見位置は次のとおり、

     2021 UT             R.A. (2000) Decl.       Mag.   Observer
     Aug. 26.29857   19 17 09.52   +50 31 46.5   20.0   Fuls
          26.30385   19 17 09.47   +50 31 45.0   20.2     "
          26.30913   19 17 09.37   +50 31 42.9   20.3     "
          26.31442   19 17 09.32   +50 31 41.3   20.1     "
          26.33663   19 17 08.96   +50 31 33.8   20.2     "
          26.35006   19 17 08.93   +50 31 28.8   20.4     "
          26.36405   19 17 08.78   +50 31 24.2   20.8     "

MPCの双曲線軌道要素、位置推算表は次のとおり、

Orbital elements:
    C/2021 Q4 (Fuls)                                                            
Epoch 2023 June 25.0 TT = JDT 2460120.5                                         
T 2023 June 10.66373 TT                                 Rudenko                 
q   7.5648947            (2000.0)            P               Q                  
z  -0.0004002      Peri.  147.01055     +0.84740832     +0.52807324             
 +/-0.0000067      Node   183.33238     -0.31907743     +0.58948294             
e   1.0030276      Incl.   71.47505     +0.42436864     -0.61126796             
From 83 observations 2020 Apr. 27-2021 Aug. 30, mean residual 0".6.             
                                                                                
    C/2021 Q4 (Fuls)                                                            
Epoch 2021 July 5.0 TT = JDT 2459400.5                                          
T 2023 June 8.67710 TT                                  Rudenko                 
q   7.5681395            (2000.0)            P               Q                  
z  -0.0004784      Peri.  146.87759     +0.84616779     +0.53006867             
 +/-0.0000067      Node   183.32658     -0.32052009     +0.58868729             
e   1.0036204      Incl.   71.47546     +0.42575456     -0.61030687             
From 83 observations 2020 Apr. 27-2021 Aug. 30, mean residual 0".6.             
                                                                                
Ephemeris:
Date    TT    R. A. (2000) Decl.     Delta      r    Elong.  Phase   m1
2021 08 01    19 24 37.0 +52 23 13   8.2917  8.6500   107.4     6.4  20.0
...
2021 08 16    19 19 36.1 +51 24 48   8.2421  8.6063   107.8     6.4  19.9
...
2021 08 24    19 17 37.3 +50 44 25   8.2251  8.5833   107.5     6.5  19.9
...
2021 08 30    19 16 31.3 +50 10 32   8.2169  8.5662   107.0     6.5  19.9
2021 08 31    19 16 22.4 +50 04 37   8.2159  8.5634   106.9     6.5  19.9
2021 09 01    19 16 14.0 +49 58 37   8.2150  8.5605   106.7     6.5  19.9
...
2021 09 07    19 15 37.0 +49 21 13   8.2118  8.5436   105.9     6.5  19.9
...
2021 09 15    19 15 23.7 +48 28 05   8.2135  8.5211   104.5     6.6  19.9
...
2021 09 30    19 16 51.7 +46 41 48   8.2338  8.4796   100.9     6.7  19.9

(MPEC 2021-Q102、CBET 5028)

フラット表示 前のトピック | 次のトピック

題名 投稿者 日時
 » Comet C/2021 Q4 (Fuls) 佐藤裕久 2021-9-25 22:12

投稿するにはまず登録を
 
© 1999 Tsutomu Seki.